STARLINK-32176, 60340

Orbit data source: Space-Track

STARLINK-32176, 60340 is a payload satellite owned by SpaceX/Seattle (US) in LEO that was launched on Fri, 02 Aug 2024 UTC via an FALCON 9 launch vehicle from the Air Force Eastern Test Range (AFETR). Payload-class satellites include a variety of spacecraft equipped with specific instruments for various scientific and technological missions. These include communications satellites like Starlink; space stations such as the ISS; scientific satellites like the Hubble; Earth observation satellites from companies like Planet Labs, Umbra, and HawkEye 360; GPS; miniature CubeSats for education and research; and military/defense satellites.

Loading next visibility...
Identifier
60340, 2024-136M
Orbit
LEO
Last TLE update
1 day ago
Origin
Manufacturer
SpaceX/Seattle
Mission
Operational Commercial Communications
Bus & Motor
STARLINK V2M, Unknown motor
Mass
730 kg wet, ~700 kg dry
Launch date (UTC)
2024-08-02 (1 year ago)
Launch vehicle
FALCON 9
Launch site
Air Force Eastern Test Range (AFETR)
Object type
Payload
Rocket body
Debris
Shape & HBR
Box + 2 Pan, 14.5 m
Radar Cross Section
33.884 m², Large (>1 m²)

Expand to show TLE details & history

TLE from 1 day ago
0 STARLINK-32176
1 60340U 24136M   25199.00735984 -.00000137  00000-0  74926-5 0  9996
2 60340  53.1602  85.7415 0001257  97.4131 262.7012 15.30186439 54900
Epoch: 2025-07-18T00:10Z
TLE epoch observation values (Epoch: 2025-07-18T00:10:35.89Z)
Latitude
-0.00006°
Longitude
147.02692°
Altitude
476.265 km
Speed
7.629 km/s
True Right ascension
05h 42m 57s
True Declination
0° 00' 00"
Sunlit
Object was in daylight at epoch
Visualization orbit readout
Latitude
28.93355°
Longitude
166.76503°
Altitude
476.398 km
Speed
7.632 km/s
Apparent Right ascension
04h 15m 55s
Apparent Declination
-5° 59' 56"
Sunlit
Object is in daylight
Visualization observer readout
Local Sidereal Time
12:38:44
Azimuth
289.895° WNW
Elevation
-30.812°
Doppler factor
1
Orbital elements
Apogee altitude
476.373 km
Perigee altitude
474.65 km
Semi-major axis
6,853.649 km
Eccentricity
0.00013
Inclination
53.1602°
RAAN
85.7415°
Arg. of periapsis
97.4131°
True anomaly
262.68691°
Mean anomaly
262.7012°
Eccentric anomaly
262.69406°
Mean motion
3.82525 °/min
Orbital period
94.11 mins
BSTAR
0.0000074926
Loading maneuver chart data...
Loading SW <> Apogee altitude chart data...
Loading historical data...
Loading historical data...
Loading historical data...
Loading historical data...
Loading historical data...
Loading historical data...
Loading historical data...
|